Location: Azul
(36.7830°S, 59.8500°W)
Time: 23:03:16
(UTC-03:00)

FO-29 - Pass Details

Date: 29 October 2021
Orbit: 799 x 1322 km, 98.5° (Epoch: 28 November)

Event Time Altitude Azimuth Distance (km) Brightness Sun altitude
Rises 23:58:12 0° 184° (S) 4,149 13.7 -38.6°
Reaches altitude 10° 00:01:42 10° 200° (SSW) 3,250 12.9 -38.8°
Maximum altitude 00:06:32 19° 240° (WSW) 2,705 12.1 -39.0°
Enters shadow 00:10:58 11° 277° (W) 3,236 12.2 -39.2°
